Weather History for Washington, PA

Change the Weather History Date:

Sunday, December 22, 2013

  Actual Average Record
Temperature  
Mean Temperature 61 °F -  
Max Temperature 69 °F 35 °F 69 °F (2013)
Min Temperature 53 °F 20 °F 3 °F (2000)
Degree Days  
Heating Degree Days 4    
Growing Degree Days 11 (Base 50)    
Moisture  
Dew Point 52 °F    
Average Humidity 79    
Maximum Humidity 94    
Minimum Humidity 64    
Precipitation  
Precipitation 0.32 in - - ()
Sea Level Pressure  
Sea Level Pressure 29.82 in    
Wind  
Wind Speed 13 mph (SW)    
Max Wind Speed 22 mph    
Max Gust Speed 54 mph    
Visibility 10 miles    
Events      
Averages and records for this station are not official NWS values.
T = Trace of Precipitation, MM = Missing Value Source: NWS Daily Summary

Daily Weather History Graph

Daily Weather History Graph

Search for Another Location

Airport:

Trip Planner

Search our weather history database for the weather conditions in past years. The results will help you decide how hot, cold, wet, or windy it might be!

Date:

Astronomy

Dec. 22, 2013 Rise Set
Actual Time 7:40 AM EST 4:59 PM EST
Civil Twilight 7:09 AM EST 5:30 PM EST
Nautical Twilight 6:35 AM EST 6:04 PM EST
Astronomical Twilight 6:02 AM EST 6:37 PM EST
Moon 10:10 PM EST (12/22) 10:35 AM EST (12/22)
Length of Visible Light 10h 20m
Length of Day
9h 18m
Waning Gibbous, 77% of the Moon is Illuminated
Dec 22
Waning Gibbous
Dec 25
Last Quarter
Jan 1
New
Jan 7
First Quarter
Jan 15
Full

Hourly Weather History & Observations

Time (EST) Temp. Dew Point Humidity Pressure Visibility Wind Dir Wind Speed Gust Speed Precip Events Conditions
12:15 AM 62.6 °F 57.2 °F 82% 29.65 in 10.0 mi South 11.5 mph 16.1 mph N/A   Scattered Clouds
12:35 AM 62.6 °F 57.2 °F 82% 29.64 in 10.0 mi South 15.0 mph 19.6 mph N/A   Mostly Cloudy
12:55 AM 64.4 °F 57.2 °F 77% 29.62 in 10.0 mi South 11.5 mph 21.9 mph N/A   Scattered Clouds
1:15 AM 64.4 °F 57.2 °F 77% 29.61 in 10.0 mi South 16.1 mph 23.0 mph N/A   Clear
1:35 AM 66.2 °F 55.4 °F 68% 29.60 in 10.0 mi South 15.0 mph 23.0 mph N/A   Clear
1:55 AM 66.2 °F 57.2 °F 73% 29.59 in 10.0 mi South 15.0 mph 24.2 mph N/A   Partly Cloudy
2:15 AM 68.0 °F 55.4 °F 64% 29.58 in 10.0 mi South 17.3 mph 34.5 mph N/A   Partly Cloudy
2:35 AM 69.8 °F 57.2 °F 64% 29.60 in 10.0 mi South 15.0 mph 23.0 mph N/A   Mostly Cloudy
2:55 AM 64.4 °F 57.2 °F 77% 29.71 in 4.0 mi West 21.9 mph 54.1 mph 0.15 in   Mostly Cloudy
3:15 AM 60.8 °F 57.2 °F 88% 29.73 in 10.0 mi WSW 19.6 mph 27.6 mph 0.03 in   Mostly Cloudy
3:35 AM 60.8 °F 57.2 °F 88% 29.74 in 10.0 mi WSW 12.7 mph 19.6 mph 0.04 in   Overcast
3:55 AM 60.8 °F 57.2 °F 88% 29.76 in 10.0 mi WSW 15.0 mph 23.0 mph 0.04 in   Overcast
4:15 AM 60.8 °F 57.2 °F 88% 29.78 in 10.0 mi WSW 13.8 mph 24.2 mph N/A   Overcast
4:35 AM 60.8 °F 57.2 °F 88% 29.79 in 10.0 mi SW 9.2 mph 18.4 mph N/A   Overcast
4:55 AM 60.8 °F 57.2 °F 88% 29.77 in 10.0 mi SW 8.1 mph - N/A   Overcast
5:15 AM 60.8 °F 57.2 °F 88% 29.78 in 10.0 mi SSW 8.1 mph - N/A   Overcast
5:35 AM 59.0 °F 55.4 °F 88% 29.78 in 10.0 mi South 8.1 mph - N/A   Mostly Cloudy
5:55 AM 59.0 °F 55.4 °F 88% 29.79 in 10.0 mi South 6.9 mph - N/A   Mostly Cloudy
6:15 AM 59.0 °F 55.4 °F 88% 29.81 in 10.0 mi South 6.9 mph - 0.01 in   Overcast
6:35 AM 59.0 °F 55.4 °F 88% 29.82 in 10.0 mi SSW 9.2 mph - 0.02 in   Overcast
6:55 AM 59.0 °F 55.4 °F 88% 29.84 in 10.0 mi SSW 6.9 mph - 0.03 in   Overcast
7:15 AM 59.0 °F 55.4 °F 88% 29.86 in 10.0 mi SSW 8.1 mph - 0.01 in   Overcast
7:35 AM 59.0 °F 55.4 °F 88% 29.85 in 10.0 mi South 11.5 mph - 0.04 in   Mostly Cloudy
7:55 AM 59.0 °F 55.4 °F 88% 29.84 in 10.0 mi South 10.4 mph 18.4 mph 0.05 in   Overcast
8:15 AM 59.0 °F 55.4 °F 88% 29.84 in 10.0 mi South 15.0 mph 20.7 mph 0.02 in   Overcast
8:35 AM 59.0 °F 55.4 °F 88% 29.81 in 10.0 mi SSE 13.8 mph 21.9 mph 0.04 in   Overcast
8:55 AM 57.2 °F 55.4 °F 94% 29.79 in 10.0 mi South 15.0 mph 20.7 mph 0.04 in   Overcast
9:15 AM 57.2 °F 53.6 °F 88% 29.76 in 10.0 mi SSE 15.0 mph 28.8 mph N/A   Overcast
9:35 AM 57.2 °F 53.6 °F 88% 29.77 in 10.0 mi South 17.3 mph 29.9 mph 0.01 in   Overcast
9:55 AM 59.0 °F 53.6 °F 82% 29.76 in 10.0 mi SSW 17.3 mph 25.3 mph 0.01 in   Overcast
10:15 AM 59.0 °F 53.6 °F 82% 29.81 in 10.0 mi SW 12.7 mph 23.0 mph N/A   Overcast
10:35 AM 59.0 °F 53.6 °F 82% 29.81 in 10.0 mi SSW 15.0 mph 21.9 mph N/A   Overcast
10:55 AM 59.0 °F 53.6 °F 82% 29.81 in 10.0 mi SSW 13.8 mph 19.6 mph N/A   Mostly Cloudy
11:15 AM 60.8 °F 53.6 °F 77% 29.80 in 10.0 mi SSW 15.0 mph 24.2 mph N/A   Mostly Cloudy
11:35 AM 60.8 °F 53.6 °F 77% 29.81 in 10.0 mi SSW 17.3 mph 28.8 mph N/A   Overcast
11:55 AM 60.8 °F 53.6 °F 77% 29.80 in 10.0 mi SSW 18.4 mph 26.5 mph N/A   Overcast
12:15 PM 60.8 °F 51.8 °F 72% 29.80 in 10.0 mi SW 16.1 mph 26.5 mph N/A   Overcast
12:35 PM 60.8 °F 51.8 °F 72% 29.80 in 10.0 mi SW 13.8 mph 26.5 mph N/A   Overcast
12:55 PM 60.8 °F 51.8 °F 72% 29.81 in 10.0 mi SW 18.4 mph 29.9 mph N/A   Overcast
1:15 PM 59.0 °F 53.6 °F 82% 29.82 in 9.0 mi SW 15.0 mph 23.0 mph N/A   Overcast
1:35 PM 59.0 °F 53.6 °F 82% 29.82 in 10.0 mi SSW 15.0 mph 25.3 mph N/A   Overcast
1:55 PM 59.0 °F 53.6 °F 82% 29.83 in 10.0 mi SW 16.1 mph 21.9 mph N/A   Overcast
2:15 PM 60.8 °F 53.6 °F 77% 29.83 in 10.0 mi SSW 17.3 mph 25.3 mph N/A   Overcast
2:35 PM 60.8 °F 53.6 °F 77% 29.84 in 10.0 mi SSW 13.8 mph 26.5 mph N/A   Overcast
2:55 PM 59.0 °F 53.6 °F 82% 29.84 in 10.0 mi SW 12.7 mph 18.4 mph N/A   Overcast
3:15 PM 59.0 °F 51.8 °F 77% 29.84 in 10.0 mi SW 8.1 mph 16.1 mph N/A   Overcast
3:35 PM 59.0 °F 51.8 °F 77% 29.85 in 10.0 mi SW 9.2 mph - N/A   Overcast
3:55 PM 59.0 °F 51.8 °F 77% 29.85 in 10.0 mi WSW 11.5 mph 18.4 mph N/A   Overcast
4:15 PM 59.0 °F 51.8 °F 77% 29.86 in 10.0 mi WSW 12.7 mph 19.6 mph N/A   Overcast
4:35 PM 57.2 °F 51.8 °F 82% 29.88 in 10.0 mi WSW 12.7 mph - N/A   Mostly Cloudy
4:55 PM 57.2 °F 50.0 °F 77% 29.87 in 10.0 mi SW 12.7 mph 18.4 mph N/A   Mostly Cloudy
5:15 PM 57.2 °F 50.0 °F 77% 29.88 in 10.0 mi WSW 10.4 mph - N/A   Mostly Cloudy
5:35 PM 57.2 °F 48.2 °F 72% 29.89 in 10.0 mi SW 10.4 mph - N/A   Mostly Cloudy
5:55 PM 57.2 °F 48.2 °F 72% 29.90 in 10.0 mi SW 11.5 mph - N/A   Overcast
6:15 PM 57.2 °F 48.2 °F 72% 29.90 in 10.0 mi SW 9.2 mph - N/A   Mostly Cloudy
6:35 PM 57.2 °F 48.2 °F 72% 29.90 in 10.0 mi SW 10.4 mph - N/A   Mostly Cloudy
6:55 PM 55.4 °F 48.2 °F 77% 29.92 in 10.0 mi SW 8.1 mph - N/A   Overcast
7:15 PM 55.4 °F 48.2 °F 77% 29.93 in 10.0 mi SW 8.1 mph - N/A   Overcast
7:35 PM 55.4 °F 48.2 °F 77% 29.94 in 10.0 mi SW 8.1 mph - N/A   Overcast
7:55 PM 55.4 °F 48.2 °F 77% 29.93 in 10.0 mi SW 8.1 mph - N/A   Overcast
8:15 PM 55.4 °F 46.4 °F 72% 29.92 in 10.0 mi SW 6.9 mph - N/A   Mostly Cloudy
8:35 PM 55.4 °F 46.4 °F 72% 29.93 in 10.0 mi SW 6.9 mph - N/A   Overcast
8:55 PM 55.4 °F 46.4 °F 72% 29.95 in 10.0 mi SW 8.1 mph - N/A   Overcast
9:15 PM 55.4 °F 46.4 °F 72% 29.94 in 10.0 mi SW 6.9 mph - N/A   Overcast
9:35 PM 55.4 °F 46.4 °F 72% 29.95 in 10.0 mi SW 5.8 mph - N/A   Overcast
9:55 PM 55.4 °F 46.4 °F 72% 29.96 in 10.0 mi SW 6.9 mph - N/A   Overcast
10:15 PM 55.4 °F 46.4 °F 72% 29.96 in 10.0 mi SW 10.4 mph 18.4 mph N/A   Overcast
10:35 PM 55.4 °F 46.4 °F 72% 29.96 in 10.0 mi WSW 6.9 mph - N/A   Overcast
10:55 PM 55.4 °F 46.4 °F 72% 29.96 in 10.0 mi WSW 6.9 mph - N/A   Overcast
11:15 PM 53.6 °F 44.6 °F 72% 29.96 in 10.0 mi WSW 11.5 mph - N/A   Overcast
11:35 PM 53.6 °F 44.6 °F 72% 29.97 in 10.0 mi WSW 9.2 mph - N/A   Overcast
11:55 PM 53.6 °F 44.6 °F 72% 29.98 in 10.0 mi WNW 6.9 mph - N/A   Overcast